START_TIME,STEP,MOV.,M15,t_acc.,M20,t_acc.
1986-01-24 00:00:21.430 ,4,1,0.,24.0,0.,24.0
1986-01-24 00:00:45.430 ,4,0,0.,24.0,0.,24.0
1986-01-24 00:01:09.430 ,3,1,0.,24.0,0.,24.0
1986-01-24 00:01:33.430 ,3,0,0.,24.0,0.,24.0
1986-01-24 00:01:57.430 ,2,1,1.,24.0,0.,24.0
1986-01-24 00:02:21.430 ,2,0,0.,24.0,0.,24.0
1986-01-24 00:02:45.430 ,1,1,0.,24.0,0.,24.0
1986-01-24 00:03:09.430 ,1,0,0.,24.0,0.,24.0
1986-01-24 00:03:33.430 ,0,1,0.,24.0,0.,24.0
1986-01-24 00:03:57.430 ,0,0,0.,24.0,0.,24.0
1986-01-24 00:04:21.430 ,0,1,0.,24.0,0.,24.0
1986-01-24 00:04:45.430 ,0,0,1.,24.0,0.,24.0
1986-01-24 00:05:09.430 ,1,1,0.,24.0,0.,24.0
1986-01-24 00:05:33.430 ,1,0,0.,24.0,0.,24.0
1986-01-24 00:05:57.430 ,2,1,0.,24.0,0.,24.0
1986-01-24 00:06:21.430 ,2,0,0.,24.0,0.,24.0
1986-01-24 00:06:45.430 ,3,1,0.,24.0,0.,24.0
1986-01-24 00:07:09.430 ,3,0,0.,24.0,0.,24.0
1986-01-24 00:07:33.430 ,4,1,0.,24.0,0.,24.0
1986-01-24 00:07:57.430 ,4,0,0.,24.0,0.,24.0
1986-01-24 00:08:21.430 ,5,1,0.,24.0,0.,24.0
1986-01-24 00:08:45.430 ,5,0,0.,24.0,0.,24.0
1986-01-24 00:09:09.430 ,6,1,0.,24.0,0.,24.0
1986-01-24 00:09:33.430 ,6,0,0.,24.0,0.,24.0
1986-01-24 00:09:57.430 ,7,1,0.,24.0,0.,24.0
1986-01-24 00:10:21.430 ,7,0,1.,24.0,0.,24.0
1986-01-24 00:10:45.430 ,7,1,0.,24.0,0.,24.0
1986-01-24 00:11:09.430 ,7,0,0.,24.0,0.,24.0
1986-01-24 00:11:33.430 ,6,1,0.,24.0,0.,24.0
1986-01-24 00:11:57.430 ,6,0,0.,24.0,0.,24.0
1986-01-24 00:12:21.430 ,5,1,0.,24.0,0.,24.0
1986-01-24 00:12:45.430 ,5,0,0.,24.0,0.,24.0
1986-01-24 00:13:09.430 ,4,1,0.,24.0,0.,24.0
1986-01-24 00:13:33.430 ,4,0,0.,24.0,0.,24.0
1986-01-24 00:13:57.430 ,3,1,0.,24.0,0.,24.0
1986-01-24 00:14:21.430 ,3,0,0.,24.0,0.,24.0
1986-01-24 00:14:45.430 ,2,1,0.,24.0,0.,24.0
1986-01-24 00:15:09.430 ,2,0,0.,24.0,0.,24.0
1986-01-24 00:15:33.430 ,1,1,0.,24.0,0.,24.0
1986-01-24 00:15:57.430 ,1,0,0.,24.0,0.,24.0
1986-01-24 00:16:21.430 ,0,1,0.,24.0,0.,24.0
1986-01-24 00:16:45.430 ,0,0,0.,24.0,0.,24.0
1986-01-24 00:17:09.430 ,0,1,0.,24.0,0.,24.0
1986-01-24 00:17:33.430 ,0,0,0.,24.0,0.,24.0
1986-01-24 00:17:57.430 ,1,1,1.,24.0,0.,24.0
1986-01-24 00:18:21.430 ,1,0,0.,24.0,0.,24.0
1986-01-24 00:18:45.430 ,2,1,0.,24.0,0.,24.0
1986-01-24 00:19:09.430 ,2,0,0.,24.0,0.,24.0
1986-01-24 00:19:33.430 ,3,1,0.,24.0,0.,24.0
1986-01-24 00:19:57.430 ,3,0,0.,24.0,0.,24.0
1986-01-24 00:20:21.430 ,4,1,2.,24.0,0.,24.0
1986-01-24 00:20:45.430 ,4,0,0.,24.0,0.,24.0
1986-01-24 00:21:09.430 ,5,1,0.,24.0,0.,24.0
1986-01-24 00:21:33.430 ,5,0,0.,24.0,0.,24.0
1986-01-24 00:21:57.430 ,6,1,0.,24.0,0.,24.0
1986-01-24 00:22:21.430 ,6,0,0.,24.0,0.,24.0
1986-01-24 00:22:45.430 ,7,1,0.,24.0,0.,24.0
1986-01-24 00:23:09.430 ,7,0,0.,24.0,0.,24.0
1986-01-24 00:23:33.430 ,7,1,0.,24.0,0.,24.0
1986-01-24 00:23:57.430 ,7,0,0.,24.0,0.,24.0
1986-01-24 00:24:21.430 ,6,1,0.,24.0,0.,24.0
1986-01-24 00:24:45.430 ,6,0,0.,24.0,0.,24.0
1986-01-24 00:25:09.430 ,5,1,0.,24.0,0.,24.0
1986-01-24 00:25:33.430 ,5,0,0.,24.0,0.,24.0
1986-01-24 00:25:57.430 ,4,1,0.,24.0,0.,24.0
1986-01-24 00:26:21.430 ,4,0,0.,24.0,0.,24.0
1986-01-24 00:26:45.430 ,3,1,2.,24.0,0.,24.0
1986-01-24 00:27:09.430 ,3,0,0.,24.0,0.,24.0
1986-01-24 00:27:33.430 ,2,1,0.,24.0,0.,24.0
1986-01-24 00:27:57.430 ,2,0,0.,24.0,0.,24.0
1986-01-24 00:28:21.430 ,1,1,0.,24.0,0.,24.0
1986-01-24 00:28:45.430 ,1,0,0.,24.0,0.,24.0
1986-01-24 00:29:09.430 ,0,1,0.,24.0,0.,24.0
1986-01-24 00:29:33.430 ,0,0,0.,24.0,0.,24.0
1986-01-24 00:29:57.430 ,0,1,0.,24.0,0.,24.0
1986-01-24 00:30:21.430 ,0,0,0.,24.0,0.,24.0
1986-01-24 00:30:45.430 ,1,1,0.,24.0,0.,24.0
1986-01-24 00:31:09.430 ,1,0,0.,24.0,0.,24.0
1986-01-24 00:31:33.430 ,2,1,0.,24.0,0.,24.0
1986-01-24 00:31:57.430 ,2,0,0.,24.0,0.,24.0
1986-01-24 00:32:21.430 ,3,1,0.,24.0,0.,24.0
1986-01-24 00:32:45.430 ,3,0,0.,24.0,0.,24.0
1986-01-24 00:33:09.430 ,4,1,0.,24.0,0.,24.0
1986-01-24 00:33:33.430 ,4,0,0.,24.0,0.,24.0
1986-01-24 00:33:57.430 ,5,1,0.,24.0,0.,24.0
1986-01-24 00:34:21.430 ,5,0,1.,24.0,0.,24.0
1986-01-24 00:34:45.430 ,6,1,0.,24.0,0.,24.0
1986-01-24 00:35:09.430 ,6,0,0.,24.0,0.,24.0
1986-01-24 00:35:33.430 ,7,1,0.,24.0,0.,24.0
1986-01-24 00:35:57.430 ,7,0,0.,24.0,0.,24.0
1986-01-24 00:36:21.430 ,7,1,0.,24.0,0.,24.0
1986-01-24 00:36:45.430 ,7,0,0.,24.0,0.,24.0
1986-01-24 00:37:09.430 ,6,1,0.,24.0,0.,24.0
1986-01-24 00:37:33.430 ,6,0,0.,24.0,0.,24.0
1986-01-24 00:37:57.430 ,5,1,0.,24.0,0.,24.0
1986-01-24 00:38:21.430 ,5,0,0.,24.0,0.,24.0
1986-01-24 00:38:45.430 ,4,1,0.,24.0,0.,24.0
1986-01-24 00:39:09.430 ,4,0,0.,24.0,0.,24.0
1986-01-24 00:41:49.030 ,2,0,,0,,0
1986-01-24 00:42:00.430 ,1,1,0.,24.0,0.,24.0
1986-01-24 00:42:21.430 ,1,0,0.,24.0,0.,24.0
1986-01-24 00:42:45.430 ,0,1,0.,24.0,0.,24.0
1986-01-24 00:43:09.430 ,0,0,0.,24.0,0.,24.0
1986-01-24 00:43:33.430 ,1,1,0.,24.0,0.,24.0
1986-01-24 00:43:57.430 ,1,0,0.,24.0,0.,24.0
1986-01-24 00:44:21.430 ,2,1,0.,24.0,0.,24.0
1986-01-24 00:44:45.430 ,2,0,0.,24.0,0.,24.0
1986-01-24 00:45:09.430 ,3,1,0.,24.0,0.,24.0
1986-01-24 00:45:33.430 ,3,0,0.,24.0,0.,24.0
1986-01-24 00:45:57.430 ,4,1,0.,24.0,0.,24.0
1986-01-24 00:46:21.430 ,4,0,0.,24.0,0.,24.0
1986-01-24 00:46:45.430 ,5,1,0.,24.0,0.,24.0
1986-01-24 00:47:09.430 ,5,0,0.,24.0,0.,24.0
1986-01-24 00:47:33.430 ,6,1,1.,24.0,0.,24.0
1986-01-24 00:47:57.430 ,6,0,0.,24.0,0.,24.0
1986-01-24 00:48:21.430 ,7,1,0.,24.0,0.,24.0
1986-01-24 00:48:45.430 ,7,0,0.,24.0,0.,24.0
1986-01-24 00:49:09.430 ,7,1,0.,24.0,0.,24.0
1986-01-24 00:49:33.430 ,7,0,0.,24.0,0.,24.0
1986-01-24 00:49:57.430 ,6,1,0.,24.0,0.,24.0
1986-01-24 00:50:21.430 ,6,0,0.,24.0,0.,24.0
1986-01-24 00:50:45.430 ,5,1,0.,24.0,0.,24.0
1986-01-24 00:51:09.430 ,5,0,0.,24.0,0.,24.0
1986-01-24 00:51:33.430 ,4,1,0.,24.0,0.,24.0
1986-01-24 00:51:57.430 ,4,0,0.,24.0,0.,24.0
1986-01-24 00:52:21.430 ,3,1,0.,24.0,0.,24.0
1986-01-24 00:52:45.430 ,3,0,0.,24.0,0.,24.0
1986-01-24 00:53:09.430 ,2,1,0.,24.0,0.,24.0
1986-01-24 00:53:33.430 ,2,0,0.,24.0,0.,24.0
1986-01-24 00:53:57.430 ,1,1,0.,24.0,0.,24.0
1986-01-24 00:54:21.430 ,1,0,0.,24.0,0.,24.0
1986-01-24 00:54:45.430 ,0,1,0.,24.0,0.,24.0
1986-01-24 00:55:09.430 ,0,0,1.,24.0,0.,24.0
1986-01-24 00:55:33.430 ,0,1,0.,24.0,0.,24.0
1986-01-24 00:55:57.430 ,0,0,0.,24.0,0.,24.0
1986-01-24 00:56:21.430 ,1,1,0.,24.0,0.,24.0
1986-01-24 00:56:45.430 ,1,0,0.,24.0,0.,24.0
1986-01-24 00:57:09.430 ,2,1,0.,24.0,0.,24.0
1986-01-24 00:57:33.430 ,2,0,0.,24.0,0.,24.0
1986-01-24 00:57:57.430 ,3,1,0.,24.0,0.,24.0
1986-01-24 00:58:21.430 ,3,0,0.,24.0,0.,24.0
1986-01-24 00:58:45.430 ,4,1,0.,24.0,0.,24.0
1986-01-24 00:59:09.430 ,4,0,0.,24.0,0.,24.0
1986-01-24 00:59:33.430 ,5,1,2.,24.0,0.,24.0
1986-01-24 00:59:57.430 ,5,0,0.,24.0,0.,24.0
1986-01-24 01:00:21.430 ,6,1,0.,24.0,0.,24.0
1986-01-24 01:00:45.430 ,6,0,0.,24.0,0.,24.0
1986-01-24 01:01:09.430 ,7,1,0.,24.0,0.,24.0
1986-01-24 01:01:33.430 ,7,0,0.,24.0,0.,24.0
1986-01-24 01:01:57.430 ,7,1,0.,24.0,0.,24.0
1986-01-24 01:02:21.430 ,7,0,0.,24.0,0.,24.0
1986-01-24 01:02:45.430 ,6,1,0.,24.0,0.,24.0
1986-01-24 01:03:09.430 ,6,0,0.,24.0,0.,24.0
1986-01-24 01:03:33.430 ,5,1,0.,24.0,0.,24.0
1986-01-24 01:03:57.430 ,5,0,0.,24.0,0.,24.0
1986-01-24 01:04:21.430 ,4,1,0.,24.0,0.,24.0
1986-01-24 01:04:45.430 ,4,0,0.,24.0,0.,24.0
1986-01-24 01:05:09.430 ,3,1,1.,24.0,0.,24.0
1986-01-24 01:05:33.430 ,3,0,0.,24.0,0.,24.0
1986-01-24 01:05:57.430 ,2,1,0.,24.0,0.,24.0
1986-01-24 01:06:21.430 ,2,0,0.,24.0,0.,24.0
1986-01-24 01:06:45.430 ,1,1,0.,24.0,0.,24.0
1986-01-24 01:07:09.430 ,1,0,0.,24.0,0.,24.0
1986-01-24 01:07:33.430 ,0,1,0.,24.0,0.,24.0
1986-01-24 01:07:57.430 ,0,0,0.,24.0,0.,24.0
1986-01-24 01:08:21.430 ,0,1,0.,24.0,0.,24.0
1986-01-24 01:08:45.430 ,0,0,1.,24.0,0.,24.0
1986-01-24 01:09:09.430 ,1,1,0.,24.0,0.,24.0
1986-01-24 01:09:33.430 ,1,0,0.,24.0,0.,24.0
1986-01-24 01:09:57.430 ,2,1,0.,24.0,0.,24.0
1986-01-24 01:10:21.430 ,2,0,0.,24.0,0.,24.0
1986-01-24 01:10:45.430 ,3,1,0.,24.0,0.,24.0
1986-01-24 01:11:09.430 ,3,0,0.,24.0,0.,24.0
1986-01-24 01:11:33.430 ,4,1,0.,24.0,0.,24.0
1986-01-24 01:11:57.430 ,4,0,1.,24.0,0.,24.0
1986-01-24 01:12:21.430 ,5,1,0.,24.0,0.,24.0
1986-01-24 01:12:45.430 ,5,0,0.,24.0,0.,24.0
1986-01-24 01:13:09.430 ,6,1,0.,24.0,0.,24.0
1986-01-24 01:13:33.430 ,6,0,0.,24.0,0.,24.0
1986-01-24 01:13:57.430 ,7,1,0.,24.0,0.,24.0
1986-01-24 01:14:21.430 ,7,0,0.,24.0,0.,24.0
1986-01-24 01:14:45.430 ,7,1,0.,24.0,0.,24.0
1986-01-24 01:15:09.430 ,7,0,0.,24.0,0.,24.0
1986-01-24 01:15:33.430 ,6,1,0.,24.0,0.,24.0
1986-01-24 01:15:57.430 ,6,0,0.,24.0,0.,24.0
1986-01-24 01:16:21.430 ,5,1,0.,24.0,0.,24.0
1986-01-24 01:16:45.430 ,5,0,0.,24.0,0.,24.0
1986-01-24 01:17:09.430 ,4,1,0.,24.0,0.,24.0
1986-01-24 01:17:33.430 ,4,0,1.,24.0,0.,24.0
1986-01-24 01:21:11.830 ,0,1,0.,24.0,0.,24.0
1986-01-24 01:21:43.030 ,0,0,0.,24.0,0.,24.0
1986-01-24 01:21:57.430 ,1,1,0.,24.0,0.,24.0
1986-01-24 01:22:21.430 ,1,0,0.,24.0,0.,24.0
1986-01-24 01:22:45.430 ,2,1,0.,24.0,0.,24.0
1986-01-24 01:23:09.430 ,2,0,0.,24.0,0.,24.0
1986-01-24 01:23:33.430 ,3,1,0.,24.0,0.,24.0
1986-01-24 01:23:57.430 ,3,0,0.,24.0,0.,24.0
1986-01-24 01:24:21.430 ,4,1,0.,24.0,0.,24.0
1986-01-24 01:24:45.430 ,4,0,0.,24.0,0.,24.0
1986-01-24 01:25:09.430 ,5,1,0.,24.0,0.,24.0
1986-01-24 01:25:57.430 ,6,1,1.,24.0,0.,24.0
1986-01-24 01:26:21.430 ,6,0,0.,24.0,0.,24.0
1986-01-24 01:26:45.430 ,7,1,0.,24.0,0.,24.0
1986-01-24 01:27:09.430 ,7,0,0.,24.0,0.,24.0
1986-01-24 01:27:33.430 ,7,1,0.,24.0,0.,24.0
1986-01-24 01:27:57.430 ,7,0,0.,24.0,0.,24.0
1986-01-24 01:28:21.430 ,6,1,0.,24.0,0.,24.0
1986-01-24 01:28:45.430 ,6,0,0.,24.0,0.,24.0
1986-01-24 01:29:09.430 ,5,1,0.,24.0,0.,24.0
1986-01-24 01:29:33.430 ,5,0,0.,24.0,0.,24.0
1986-01-24 01:29:57.430 ,4,1,0.,24.0,0.,24.0
1986-01-24 01:30:21.430 ,4,0,0.,24.0,0.,24.0
1986-01-24 01:30:45.430 ,3,1,0.,24.0,0.,24.0
1986-01-24 01:31:09.430 ,3,0,0.,24.0,0.,24.0
1986-01-24 01:31:33.430 ,2,1,0.,24.0,0.,24.0
1986-01-24 01:31:57.430 ,2,0,0.,24.0,0.,24.0
1986-01-24 01:32:21.430 ,1,1,0.,24.0,0.,24.0
1986-01-24 01:32:45.430 ,1,0,0.,24.0,0.,24.0
1986-01-24 01:33:09.430 ,0,1,0.,24.0,0.,24.0
1986-01-24 01:33:33.430 ,0,0,0.,24.0,0.,24.0
1986-01-24 01:33:57.430 ,0,1,0.,24.0,0.,24.0
1986-01-24 01:34:21.430 ,0,0,0.,24.0,0.,24.0
1986-01-24 01:34:45.430 ,1,1,1.,24.0,0.,24.0
1986-01-24 01:35:09.430 ,1,0,0.,24.0,0.,24.0
1986-01-24 01:35:33.430 ,2,1,0.,24.0,0.,24.0
1986-01-24 01:35:57.430 ,2,0,0.,24.0,0.,24.0
1986-01-24 01:36:21.430 ,3,1,0.,24.0,0.,24.0
1986-01-24 01:36:45.430 ,3,0,0.,24.0,0.,24.0
1986-01-24 01:37:09.430 ,4,1,0.,24.0,0.,24.0
1986-01-24 01:37:33.430 ,4,0,0.,24.0,0.,24.0
1986-01-24 01:37:57.430 ,5,1,0.,24.0,0.,24.0
1986-01-24 01:38:21.430 ,5,0,0.,24.0,0.,24.0
1986-01-24 01:38:45.430 ,6,1,0.,24.0,0.,24.0
1986-01-24 01:39:09.430 ,6,0,0.,24.0,0.,24.0
1986-01-24 01:39:33.430 ,7,1,0.,24.0,0.,24.0
1986-01-24 01:39:57.430 ,7,0,0.,24.0,0.,24.0
1986-01-24 01:40:21.430 ,7,1,0.,24.0,0.,24.0
1986-01-24 01:40:45.430 ,7,0,0.,24.0,0.,24.0
1986-01-24 01:41:09.430 ,6,1,0.,24.0,0.,24.0
1986-01-24 01:41:33.430 ,6,0,1.,24.0,0.,24.0
1986-01-24 01:41:57.430 ,5,1,0.,24.0,0.,24.0
1986-01-24 01:42:21.430 ,5,0,0.,24.0,0.,24.0
1986-01-24 01:42:45.430 ,4,1,0.,24.0,0.,24.0
1986-01-24 01:43:09.430 ,4,0,0.,24.0,0.,24.0
1986-01-24 01:43:33.430 ,3,1,0.,24.0,0.,24.0
1986-01-24 01:43:57.430 ,3,0,0.,24.0,0.,24.0
1986-01-24 01:44:21.430 ,2,1,0.,24.0,0.,24.0
1986-01-24 01:44:45.430 ,2,0,0.,24.0,0.,24.0
1986-01-24 01:45:09.430 ,1,1,0.,24.0,0.,24.0
1986-01-24 01:45:33.430 ,1,0,0.,24.0,0.,24.0
1986-01-24 01:45:57.430 ,0,1,0.,24.0,0.,24.0
1986-01-24 01:46:21.430 ,0,0,0.,24.0,0.,24.0
1986-01-24 01:46:45.430 ,0,1,0.,24.0,0.,24.0
1986-01-24 01:47:09.430 ,0,0,0.,24.0,0.,24.0
1986-01-24 01:47:33.430 ,1,1,0.,24.0,0.,24.0
1986-01-24 01:47:57.430 ,1,0,0.,24.0,0.,24.0
1986-01-24 01:48:21.430 ,2,1,0.,24.0,0.,24.0
1986-01-24 01:48:45.430 ,2,0,0.,24.0,0.,24.0
1986-01-24 01:49:09.430 ,3,1,0.,24.0,0.,24.0
1986-01-24 01:49:33.430 ,3,0,0.,24.0,0.,24.0
1986-01-24 01:49:57.430 ,4,1,1.,24.0,0.,24.0
1986-01-24 01:50:21.430 ,4,0,0.,24.0,0.,24.0
1986-01-24 01:50:45.430 ,5,1,0.,24.0,0.,24.0
1986-01-24 01:51:09.430 ,5,0,0.,24.0,0.,24.0
1986-01-24 01:51:33.430 ,6,1,0.,24.0,0.,24.0
1986-01-24 01:51:57.430 ,6,0,0.,24.0,0.,24.0
1986-01-24 01:52:21.430 ,7,1,0.,24.0,0.,24.0
1986-01-24 01:52:45.430 ,7,0,0.,24.0,0.,24.0
1986-01-24 01:53:09.430 ,7,1,0.,24.0,0.,24.0
1986-01-24 01:53:33.430 ,7,0,1.,24.0,0.,24.0
1986-01-24 01:53:57.430 ,6,1,1.,24.0,0.,24.0
1986-01-24 01:54:21.430 ,6,0,0.,24.0,0.,24.0
1986-01-24 01:54:45.430 ,5,1,0.,24.0,0.,24.0
1986-01-24 01:55:09.430 ,5,0,0.,24.0,0.,24.0
1986-01-24 01:55:33.430 ,4,1,0.,24.0,0.,24.0
1986-01-24 01:55:57.430 ,4,0,0.,24.0,0.,24.0
1986-01-24 01:56:21.430 ,3,1,0.,24.0,0.,24.0
1986-01-24 01:56:45.430 ,3,0,0.,24.0,0.,24.0
1986-01-24 01:57:09.430 ,2,1,0.,24.0,0.,24.0
1986-01-24 01:57:33.430 ,2,0,1.,24.0,0.,24.0
1986-01-24 01:57:57.430 ,1,1,0.,24.0,0.,24.0
1986-01-24 01:58:21.430 ,1,0,0.,24.0,0.,24.0
1986-01-24 01:58:45.430 ,0,1,0.,24.0,0.,24.0
1986-01-24 01:59:09.430 ,0,0,0.,24.0,0.,24.0
1986-01-24 01:59:33.430 ,0,1,0.,24.0,0.,24.0
1986-01-24 01:59:57.430 ,0,0,0.,24.0,0.,24.0
1986-01-24 02:00:21.430 ,1,1,1.,24.0,0.,24.0
1986-01-24 02:00:45.430 ,1,0,0.,24.0,0.,24.0
1986-01-24 02:01:09.430 ,2,1,0.,24.0,0.,24.0
1986-01-24 02:01:33.430 ,2,0,0.,24.0,0.,24.0
1986-01-24 02:01:57.430 ,3,1,0.,24.0,0.,24.0
1986-01-24 02:02:21.430 ,3,0,0.,24.0,0.,24.0
1986-01-24 02:02:45.430 ,4,1,0.,24.0,0.,24.0
1986-01-24 02:03:09.430 ,4,0,1.,24.0,0.,24.0
1986-01-24 02:03:33.430 ,5,1,0.,24.0,0.,24.0
1986-01-24 02:03:57.430 ,5,0,0.,24.0,0.,24.0
1986-01-24 02:04:21.430 ,6,1,0.,24.0,0.,24.0
1986-01-24 02:04:45.430 ,6,0,0.,24.0,0.,24.0
1986-01-24 02:05:09.420 ,7,1,0.,24.0,0.,24.0
1986-01-24 02:05:33.430 ,7,0,0.,24.0,0.,24.0
1986-01-24 02:05:57.430 ,7,1,1.,24.0,0.,24.0
1986-01-24 02:06:21.430 ,7,0,0.,24.0,0.,24.0
1986-01-24 02:06:45.430 ,6,1,1.,24.0,0.,24.0
1986-01-24 02:07:09.430 ,6,0,0.,24.0,0.,24.0
1986-01-24 02:07:33.430 ,5,1,0.,24.0,0.,24.0
1986-01-24 02:07:57.430 ,5,0,0.,24.0,0.,24.0
1986-01-24 02:08:21.430 ,4,1,0.,24.0,0.,24.0
1986-01-24 02:08:45.420 ,4,0,1.,24.0,0.,24.0
1986-01-24 02:09:09.430 ,3,1,0.,24.0,0.,24.0
1986-01-24 02:09:33.430 ,3,0,0.,24.0,0.,24.0
1986-01-24 02:09:57.430 ,2,1,0.,24.0,0.,24.0
1986-01-24 02:10:21.430 ,2,0,0.,24.0,0.,24.0
1986-01-24 02:10:45.430 ,1,1,0.,24.0,0.,24.0
1986-01-24 02:11:09.430 ,1,0,0.,24.0,0.,24.0
1986-01-24 02:11:33.430 ,0,1,0.,24.0,0.,24.0
1986-01-24 02:11:57.430 ,0,0,0.,24.0,0.,24.0
1986-01-24 02:12:21.430 ,0,1,1.,24.0,0.,24.0
1986-01-24 02:12:45.430 ,0,0,0.,24.0,0.,24.0
1986-01-24 02:13:09.430 ,1,1,0.,24.0,0.,24.0
1986-01-24 02:13:33.430 ,1,0,0.,24.0,0.,24.0
1986-01-24 02:13:57.430 ,2,1,0.,24.0,0.,24.0
1986-01-24 02:14:21.430 ,2,0,0.,24.0,0.,24.0
1986-01-24 02:14:45.430 ,3,1,0.,24.0,0.,24.0
1986-01-24 02:15:09.430 ,3,0,0.,24.0,0.,24.0
1986-01-24 02:15:33.430 ,4,1,0.,24.0,0.,24.0
1986-01-24 02:15:57.430 ,4,0,0.,24.0,0.,24.0
1986-01-24 02:16:21.430 ,5,1,1.,24.0,0.,24.0
1986-01-24 02:16:45.430 ,5,0,1.,24.0,0.,24.0
1986-01-24 02:17:09.430 ,6,1,0.,24.0,0.,24.0
1986-01-24 02:17:33.430 ,6,0,0.,24.0,0.,24.0
1986-01-24 02:17:57.430 ,7,1,0.,24.0,0.,24.0
1986-01-24 02:18:21.430 ,7,0,0.,24.0,0.,24.0
1986-01-24 02:18:45.420 ,7,1,0.,24.0,0.,24.0
1986-01-24 02:19:09.420 ,7,0,0.,24.0,0.,24.0
1986-01-24 02:19:33.420 ,6,1,1.,24.0,0.,24.0
1986-01-24 02:19:57.420 ,6,0,0.,24.0,0.,24.0
1986-01-24 02:20:21.420 ,5,1,0.,24.0,0.,24.0
1986-01-24 02:20:45.420 ,5,0,0.,24.0,0.,24.0
1986-01-24 02:21:09.420 ,4,1,1.,24.0,0.,24.0
1986-01-24 02:21:33.420 ,4,0,0.,24.0,0.,24.0
1986-01-24 02:21:57.420 ,3,1,1.,24.0,0.,24.0
1986-01-24 02:22:21.420 ,3,0,1.,24.0,0.,24.0
1986-01-24 02:22:45.420 ,2,1,0.,24.0,0.,24.0
1986-01-24 02:23:09.420 ,2,0,0.,24.0,0.,24.0
1986-01-24 02:23:33.420 ,1,1,0.,24.0,0.,24.0
1986-01-24 02:23:57.420 ,1,0,0.,24.0,0.,24.0
1986-01-24 02:24:21.420 ,0,1,0.,24.0,0.,24.0
1986-01-24 02:24:45.420 ,0,0,0.,24.0,0.,24.0
1986-01-24 02:25:09.420 ,0,1,1.,24.0,0.,24.0
1986-01-24 02:25:57.420 ,1,1,0.,24.0,0.,24.0
1986-01-24 02:26:21.420 ,1,0,1.,24.0,0.,24.0
1986-01-24 02:26:45.420 ,2,1,0.,24.0,0.,24.0
1986-01-24 02:27:09.420 ,2,0,0.,24.0,0.,24.0
1986-01-24 02:27:33.420 ,3,1,0.,24.0,0.,24.0
1986-01-24 02:27:57.420 ,3,0,0.,24.0,0.,24.0
1986-01-24 02:28:21.420 ,4,1,0.,24.0,0.,24.0
1986-01-24 02:28:45.420 ,4,0,0.,24.0,0.,24.0
1986-01-24 02:29:09.420 ,5,1,0.,24.0,0.,24.0
1986-01-24 02:29:33.420 ,5,0,0.,24.0,0.,24.0
1986-01-24 02:29:57.420 ,6,1,0.,24.0,0.,24.0
1986-01-24 02:30:21.420 ,6,0,0.,24.0,0.,24.0
1986-01-24 02:30:45.420 ,7,1,0.,24.0,0.,24.0
1986-01-24 02:31:09.420 ,7,0,0.,24.0,0.,24.0
1986-01-24 02:31:33.420 ,7,1,0.,24.0,0.,24.0
1986-01-24 02:31:57.420 ,7,0,0.,24.0,0.,24.0
1986-01-24 02:32:21.420 ,6,1,0.,24.0,0.,24.0
1986-01-24 02:32:45.420 ,6,0,0.,24.0,0.,24.0
1986-01-24 02:33:09.420 ,5,1,0.,24.0,0.,24.0
1986-01-24 02:33:33.420 ,5,0,0.,24.0,0.,24.0
1986-01-24 02:33:57.420 ,4,1,0.,24.0,0.,24.0
1986-01-24 02:34:21.420 ,4,0,0.,24.0,0.,24.0
1986-01-24 02:34:45.420 ,3,1,1.,24.0,0.,24.0
1986-01-24 02:35:09.420 ,3,0,0.,24.0,0.,24.0
1986-01-24 02:35:33.420 ,2,1,0.,24.0,0.,24.0
1986-01-24 02:35:57.420 ,2,0,0.,24.0,0.,24.0
1986-01-24 02:36:21.420 ,1,1,2.,24.0,0.,24.0
1986-01-24 02:36:45.420 ,1,0,0.,24.0,0.,24.0
1986-01-24 02:37:09.420 ,0,1,1.,24.0,0.,24.0
1986-01-24 02:37:33.420 ,0,0,0.,24.0,0.,24.0
1986-01-24 02:37:57.420 ,0,1,0.,24.0,0.,24.0
1986-01-24 02:38:21.420 ,0,0,0.,24.0,0.,24.0
1986-01-24 02:38:45.420 ,1,1,0.,24.0,0.,24.0
1986-01-24 02:39:09.420 ,1,0,0.,24.0,0.,24.0
1986-01-24 02:39:33.420 ,2,1,0.,24.0,0.,24.0
1986-01-24 02:39:57.420 ,2,0,0.,24.0,0.,24.0
1986-01-24 02:40:21.420 ,3,1,0.,24.0,0.,24.0
1986-01-24 02:40:45.420 ,3,0,0.,24.0,0.,24.0
1986-01-24 02:41:09.420 ,4,1,0.,24.0,0.,24.0
1986-01-24 02:41:33.420 ,4,0,0.,24.0,0.,24.0
1986-01-24 02:41:57.420 ,5,1,0.,24.0,0.,24.0
1986-01-24 02:42:21.420 ,5,0,0.,24.0,0.,24.0
1986-01-24 02:42:45.420 ,6,1,0.,24.0,0.,24.0
1986-01-24 02:43:09.420 ,6,0,0.,24.0,0.,24.0
1986-01-24 02:43:33.420 ,7,1,0.,24.0,0.,24.0
1986-01-24 02:43:57.420 ,7,0,0.,24.0,0.,24.0
1986-01-24 02:44:21.420 ,7,1,0.,24.0,0.,24.0
1986-01-24 02:44:45.420 ,7,0,0.,24.0,0.,24.0
1986-01-24 02:45:09.420 ,6,1,1.,24.0,0.,24.0
1986-01-24 02:45:33.420 ,6,0,0.,24.0,0.,24.0
1986-01-24 02:45:57.420 ,5,1,0.,24.0,0.,24.0
1986-01-24 02:46:21.420 ,5,0,0.,24.0,0.,24.0
1986-01-24 02:46:45.420 ,4,1,0.,24.0,0.,24.0
1986-01-24 02:47:09.420 ,4,0,0.,24.0,0.,24.0
1986-01-24 02:47:33.420 ,3,1,0.,24.0,0.,24.0
1986-01-24 02:47:57.420 ,3,0,0.,24.0,0.,24.0
1986-01-24 02:48:21.420 ,2,1,0.,24.0,0.,24.0
1986-01-24 02:48:45.420 ,2,0,0.,24.0,0.,24.0
1986-01-24 02:49:09.420 ,1,1,0.,24.0,0.,24.0
1986-01-24 02:49:33.420 ,1,0,0.,24.0,0.,24.0
1986-01-24 02:49:57.420 ,0,1,0.,24.0,0.,24.0
1986-01-24 02:50:21.420 ,0,0,0.,24.0,0.,24.0
1986-01-24 02:50:45.420 ,0,1,1.,24.0,0.,24.0
1986-01-24 02:51:09.420 ,0,0,0.,24.0,0.,24.0
1986-01-24 02:51:33.420 ,1,1,0.,24.0,0.,24.0
1986-01-24 02:51:57.420 ,1,0,2.,24.0,0.,24.0
1986-01-24 02:52:21.420 ,2,1,0.,24.0,0.,24.0
1986-01-24 02:52:45.420 ,2,0,0.,24.0,0.,24.0
1986-01-24 02:53:09.420 ,3,1,0.,24.0,0.,24.0
1986-01-24 02:53:33.420 ,3,0,1.,24.0,0.,24.0
1986-01-24 02:53:57.420 ,4,1,0.,24.0,0.,24.0
1986-01-24 02:54:21.420 ,4,0,,0,,0
1986-01-24 02:54:45.420 ,5,1,0.,24.0,0.,24.0
1986-01-24 02:55:09.420 ,5,0,0.,24.0,0.,24.0
1986-01-24 02:55:33.420 ,6,1,0.,24.0,0.,24.0
1986-01-24 02:55:57.420 ,6,0,0.,24.0,0.,24.0
1986-01-24 02:56:21.420 ,7,1,0.,24.0,0.,24.0
1986-01-24 02:56:45.420 ,7,0,0.,24.0,0.,24.0
1986-01-24 02:57:09.420 ,7,1,0.,24.0,0.,24.0
1986-01-24 02:57:33.420 ,7,0,0.,24.0,0.,24.0
1986-01-24 02:57:57.420 ,6,1,0.,24.0,0.,24.0
1986-01-24 02:58:21.420 ,6,0,0.,24.0,0.,24.0
1986-01-24 02:58:45.420 ,5,1,0.,24.0,0.,24.0
1986-01-24 02:59:09.420 ,5,0,0.,24.0,0.,24.0
1986-01-24 02:59:33.420 ,4,1,0.,24.0,0.,24.0
1986-01-24 02:59:57.420 ,4,0,0.,24.0,0.,24.0
1986-01-24 03:00:21.420 ,3,1,0.,24.0,0.,24.0
